STARLINK-3688, 52310

Orbit data source: Space-Track

STARLINK-3688, 52310 is a payload satellite owned by SpaceX/Seattle (US) in LEO that was launched on Thu, 21 Apr 2022 UTC via an FALCON 9 launch vehicle from the Air Force Eastern Test Range (AFETR). Payload-class satellites include a variety of spacecraft equipped with specific instruments for various scientific and technological missions. These include communications satellites like Starlink; space stations such as the ISS; scientific satellites like the Hubble; Earth observation satellites from companies like Planet Labs, Umbra, and HawkEye 360; GPS; miniature CubeSats for education and research; and military/defense satellites.

Loading next visibility...
Identifier
52310, 2022-041BB
Orbit
LEO
Country
Flag of USUS
Related business
Manufacturer
SpaceX/Seattle
Mission
Operational Commercial Communications
Bus & Motor
STARLINK, Unknown motor
Mass
297 kg wet, ~275 kg dry
Launch date (UTC)
2022-04-21 (4 years ago)
Launch vehicle
FALCON 9
Launch site
Air Force Eastern Test Range (AFETR)
Object type
Payload
Rocket body
Debris
Shape & HBR
Box + 1 Pan, 10.1 m
Radar Cross Section
11.087 m², Large (>1 m²)

Expand to show TLE details & history
Last TLE update: 16 hours ago

TLE from 16 hours ago
0 STARLINK-3688
1 52310U 22041BB  26129.83864218  .00000239  00000-0  33112-4 0  9998
2 52310  53.2164 174.6773 0001173  85.3390 274.7736 15.08837666225093
Epoch: 2026-05-09T20:07Z
TLE epoch observation values (Epoch: 2026-05-09T20:07:38.684Z)
Latitude
-0.00002°
Longitude
5.11577°
Altitude
540.58 km
Speed
7.593 km/s
True Right ascension
11h 38m 42s
True Declination
0° 00' 00"
Sunlit
Object was in full shadow at epoch
Visualization orbit readout
Latitude
Unknown
Longitude
Unknown
Altitude
Unknown
Speed
Unknown
Apparent Right ascension
Unknown
Apparent Declination
Unknown
Sunlit
N/A
Visualization observer readout
Local Sidereal Time
20:36:21
Azimuth
Unknown
Elevation
Unknown
Doppler factor
Unknown
Orbital elements
Apogee altitude
540.807 km
Perigee altitude
539.184 km
Semi-major axis
6,918.133 km
Eccentricity
0.00012
Inclination
53.2164°
RAAN
174.6773°
Arg. of periapsis
85.339°
True anomaly
274.7602°
Mean anomaly
274.7736°
Eccentric anomaly
274.7669°
Mean motion
3.7719 °/min
Orbital period
95.44 mins
BSTAR
0.000033112
Loading maneuver chart data...
Computing Atmospheric mass density...
Loading historical data...
Loading historical data...
Loading historical data...
Loading historical data...
Loading historical data...
Loading historical data...
Loading historical data...

Documentation

Showing up to 5 results
|